RH
29 34 30 34 41 50 57 54 53 40 41 55 77 89 95 96 91 93 91 78 66 57 49 44 41 39 38 39 43 42 38 34 32 32 30 29 28 29 28 29 29 28 28 28 27 25 24
32 37 38 39 49 64 78 65 50 42 46 60 74 84 85 96 96 89 84 72 62 60 55 47 43 43 42 41 45 42 41 39 35 33 32 32 33 32 33 32 30 32 31 28 26 24 23
35 38 39 40 52 75 82 90 77 72 61 78 85 82 80 89 89 85 74 64 59 58 53 52 50 47 45 48 47 44 40 38 37 35 34 33 33 34 33 32 32 32 29 25 25 25 25
37 42 39 48 68 71 77 88 92 91 89 89 79 83 82 83 85 76 70 66 68 63 59 56 52 50 52 50 46 44 43 42 40 38 35 34 32 33 35 35 33 32 32 28 26 26 25
38 46 41 42 56 66 70 78 83 88 87 89 87 86 85 83 75 69 65 65 67 65 61 55 50 50 56 51 49 46 45 46 45 45 43 41 40 41 41 41 38 35 37 33 28 26 24
31 38 41 45 54 58 61 61 72 75 75 79 79 77 81 77 70 67 69 69 67 64 66 63 64 60 62 61 59 58 55 52 52 49 46 46 45 45 42 46 47 41 33 32 28 27 30
34 34 33 41 43 46 51 53 54 58 56 56 53 57 63 68 66 63 62 62 63 63 63 63 61 58 57 52 48 47 46 48 47 44 48 46 46 44 42 39 38 39 45 42 34 35 36
28 34 33 32 33 35 42 46 48 50 50 48 47 49 53 54 56 55 54 52 52 50 52 50 48 45 43 41 45 44 43 42 44 41 40 39 41 37 38 39 39 42 46 43 39 39 42
34 29 31 32 29 32 34 36 38 39 41 44 45 44 47 48 43 40 37 35 36 36 38 41 40 43 44 43 41 40 40 40 42 40 42 38 36 39 42 43 46 49 48 48 53 47 43
37 34 28 28 32 31 29 31 34 37 40 41 41 40 42 44 43 37 36 38 37 31 41 38 39 40 40 41 39 36 39 40 41 42 42 43 45 46 47 50 50 61 50 52 54 59 51
32 34 36 31 28 29 32 33 31 30 31 33 36 35 35 41 37 31 32 32 30 27 38 31 36 35 35 36 36 39 43 47 48 50 52 49 49 52 58 57 58 61 57 58 61 61 60
34 30 34 38 37 28 18 18 17 26 31 29 29 27 25 30 30 28 26 26 25 35 36 34 34 34 34 36 39 40 45 47 49 51 53 52 57 60 64 66 66 64 66 63 60 59 64
41 34 30 33 38 40 39 29 20 17 28 26 23 22 22 22 26 25 25 25 35 37 31 32 37 36 41 41 41 43 49 53 58 64 69 60 63 67 69 72 72 73 77 73 73 72 63
46 39 34 31 34 40 43 35 25 19 22 26 23 21 21 23 22 21 24 24 32 29 32 33 33 34 38 43 42 44 47 51 57 63 64 71 75 75 72 77 82 84 82 79 81 76 74
48 44 37 33 33 36 40 44 31 20 23 24 22 22 23 22 23 21 21 32 27 28 29 32 30 40 34 36 41 44 44 47 52 64 74 75 76 72 71 75 85 88 87 84 85 82 84
52 46 43 37 35 35 39 44 42 21 21 21 21 22 23 23 23 20 22 29 28 28 28 30 33 32 40 37 42 43 45 45 51 55 58 60 66 57 59 63 75 87 91 90 85 85 80
66 51 48 41 36 36 38 41 41 28 19 20 21 22 24 23 22 22 31 28 27 28 29 32 32 33 32 34 37 39 43 42 43 44 45 48 55 46 51 59 71 85 93 94 91 87 88
71 61 51 46 39 37 38 39 39 28 24 21 23 27 24 22 24 27 30 27 27 30 30 30 31 30 31 30 35 38 39 39 39 41 42 43 47 49 44 52 61 74 82 88 90 88 90
73 70 58 50 42 39 38 38 38 29 26 26 24 25 25 24 32 29 29 30 29 29 29 28 30 31 31 32 35 32 33 32 36 38 41 44 47 46 39 48 58 67 75 80 83 90 88
75 74 70 58 49 41 41 41 40 34 26 28 27 31 27 26 29 29 31 31 33 34 32 31 30 32 33 33 32 33 31 32 34 35 40 43 46 43 39 39 52 61 65 74 77 88 85
75 78 75 69 58 48 42 42 42 40 34 29 30 34 32 33 29 29 30 31 33 32 34 36 34 34 36 38 36 36 34 36 35 34 41 44 44 41 39 40 45 54 63 68 78 77 83
68 76 82 77 70 58 49 43 43 42 40 35 32 35 37 36 31 28 30 32 34 35 36 35 37 37 36 37 33 35 38 40 37 40 43 42 42 40 35 37 41 43 41 44 47 52 56
68 71 81 84 76 68 58 49 44 43 43 42 40 37 36 38 37 31 28 32 33 36 36 36 38 37 37 35 34 33 35 37 39 39 42 44 43 41 41 33 33 31 29 31 33 36 39
65 71 75 84 83 77 67 57 50 47 46 46 46 44 41 38 38 35 33 32 33 37 40 39 37 36 34 33 34 36 35 36 39 39 40 42 45 43 44 34 26 24 28 29 30 28 32
62 72 75 78 87 82 77 68 59 53 50 50 50 50 46 43 39 39 35 36 35 35 38 39 36 33 32 35 34 35 38 38 42 45 45 44 45 47 52 47 26 22 27 29 31 25 26
63 73 79 77 82 88 83 79 70 61 56 54 55 54 53 49 45 40 38 37 36 36 36 37 36 34 35 35 35 35 33 41 38 42 46 48 49 51 48 54 31 18 28 30 31 27 23
72 75 76 79 80 88 89 84 81 70 62 59 60 62 60 54 48 48 43 40 39 40 37 38 36 39 35 35 38 36 33 38 43 42 47 48 51 53 47 48 31 20 25 29 27 18 21
72 80 80 78 81 84 93 89 87 81 74 69 66 66 67 65 57 51 49 49 47 44 41 39 38 34 37 37 37 36 40 36 38 36 45 47 45 45 46 49 42 23 29 29 20 21 23
69 79 81 77 83 84 92 93 91 86 82 77 74 70 71 71 65 60 56 54 53 50 44 41 39 38 37 37 39 41 41 40 35 25 30 37 38 39 37 27 21 23 23 23 22 22 22